Regional Weather Roundup
Issued by NWS Newport/Morehead, NC

Current Version | Previous Version | Text Only | Print | Product List | Glossary On
Versions: 1 2 3 4 5 6 7 8 9 10 11 12 13 14 15 16 17 18 19 20 21 22 23 24 25 26 27 28 29 30 31 32 33 34 35 36 37 38 39 40 41 42 43 44 45 46 47 48 49 50
000
ASUS42 KMHX 300825
RWRMHX
WEATHER ROUNDUP FOR EASTERN NORTH CAROLINA
NATIONAL WEATHER SERVICE NEWPORT/MOREHEAD CITY NC
400 AM EDT SUN AUG 30 2015

NOTE: "FAIR" INDICATES FEW OR NO CLOUDS BELOW 12,000 FEET
WITH NO SIGNIFICANT WEATHER AND/OR OBSTRUCTIONS TO VISIBILITY

NCZ015>017-031-032-045>047-102-103-300900-
NORTH COAST

CITY           SKY/WX    TMP DP  RH WIND       PRES   REMARKS
EDENTON        MOCLDY    66  63  89 CALM      30.10S
ELIZABETH CITY MOCLDY    70  66  87 NW7       30.10F
KITTY HAWK     PTSUNNY   75  70  84 N5        30.07S
MANTEO         PTCLDY    74  71  89 NE5       30.08F

$$

NCZ045>047-081-094-103-104-300900-
CENTRAL COAST

CITY           SKY/WX    TMP DP  RH WIND       PRES   REMARKS
FRISCO         MOCLDY    76  73  91 VRB3      30.08S
SWANQUARTER    NOT AVBL

$$

NCZ095-097-098-100-101-300900-
SOUTHERN COAST

CITY           SKY/WX    TMP DP  RH WIND       PRES   REMARKS
BEAUFORT       PTCLDY    71  69  93 N6        30.10S
CEDAR ISLAND   NOT AVBL
JACKSONVILLE   MOCLDY    67  64  90 CALM      30.10S
PINEY ISLAND   MOSUNNY  N/A N/A N/A NW5       30.09S
WILMINGTON     CLOUDY    71  65  81 CALM      30.10F


$$

NCZ011>013-027>030-043-044-078>080-089-090>093-098-300900-
COASTAL PLAIN

CITY           SKY/WX    TMP DP  RH WIND       PRES   REMARKS
AHOSKIE        PTCLDY    61  60  96 CALM      30.12S
CLINTON        PTCLDY    65  64  96 CALM      30.11F
ELIZABETHTOWN  PTCLDY    68  65  89 CALM      30.11S
GOLDSBORO      FAIR      68  64  87 CALM      30.10F
GREENVILLE     CLOUDY    68  68 100 CALM      30.13R
HAVELOCK       PTCLDY    70  67  90 CALM      30.11S
KENANSVILLE      N/A     65  64  96 CALM      30.12S
KINSTON        MOCLDY    66  64  94 CALM      30.12S
NEW BERN       PTCLDY    67  64  90 S3        30.12S
RICHLANDS      MOCLDY    66  61  82 CALM      30.11S
ROCKY MOUNT    PTCLDY    65  62  90 CALM      30.12S
WASHINGTON     MOCLDY    65  64  94 CALM      30.11S
WHITEVILLE     MOCLDY    69  66  90 CALM      30.11S

$$

AMZ130-135-150-152-154-156-158-170-250-252-270-ANZ085-086-088-633-658-670-300900-
MARINE OBSERVATIONS

STATION/POSITION TIME  TEMP    WIND        PRES    WAVE   SWELL
                       AIR SEA DIR/SP/G            HT/PER HT/PER
                 (UTC) (F)     (DEG/KT/KT) (MB)    (FT/S) (FT/S)
CHESAPEAKE LIGHT 0800   76      20/  5/  5 1019.8
64 E VA BEACH    0750   77 77   40/ 12/ 14 1018.0    4/11   3/11
DUCK             NOT AVBL
2 E DUCK         0711      78                N/A     4/11   2/11
OREGON INLET     NOT AVBL
13E OREGON INLT  0800      78                N/A     4/11   2/11
HATTERAS CG      NOT AVBL
DIAMOND BUOY     0750   78 81  350/ 10/ 12 1018.6    3/10   3/10
CAPE LOOKOUT     0800   74     350/  6/  7 1018.8
BEAUFORT LAB     NOT AVBL
30 SE NEW RVR IN 0708   79 81   30/  6/ 10 1019.5
30 SE NEW RVR IN 0725      81                N/A     4/11   2/11
27 SE WRIGHTSVLE 0800   76 82   70/  4/  6   N/A
5 SE WRIGHTSVLE  0708   80 82   60/  6/  8 1019.3
225 S CAPE HAT   0750   83 84  220/  8/ 10 1019.0    5/11   5/11
41 SE CHARLESTON 0750   75 85  190/  6/ 12 1019.1    4/11   3/11

$$



USA.gov is the U.S. government's official web portal to all federal, state and local government web resources and services.